Location: Eldred Sherwood Park Lake Dam
(42.9416°N, 93.5655°W)
Time: 12:30:25
(UTC+00:00)

Explorer 11/Cluster Stage 4 - Pass Details

Date: 16 December 2025
Orbit: 463 x 1180 km, 28.8° (Epoch: 13 January)

Event Time Altitude Azimuth Distance (km) Brightness Sun altitude
Rises 23:33:01 0° 226° (SW) 4,041 11.8 -9.3°
Reaches altitude 10° 23:36:37 10° 212° (SSW) 3,087 10.5 -9.9°
Maximum altitude 23:42:09 21° 167° (SSE) 2,301 9.1 -10.8°
Drops below altitude 10° 23:47:27 10° 121° (ESE) 2,938 9.1 -11.7°
Enters shadow 23:49:21 - 112° (ESE) 3,407 9.4 -12.1°
